| time (UTC) | temp F | wind direction | speed knots | gust knots | rain 1hr in | rain 24hr in | rain mn in | humidity % | barometer mb |
| 20260509113055 | 30 | 270 | 0.0 | 0.0 | 0.00 | 0.00 | 0.00 | 87 | 1022.8 |
| 20260509111544 | 31 | 270 | 0.0 | 0.0 | 0.00 | 0.00 | 0.00 | 86 | 1022.7 |
| 20260509110041 | 32 | 270 | 0.0 | 0.0 | 0.00 | 0.00 | 0.00 | 87 | 1022.6 |
| 20260509104540 | 32 | 270 | 0.0 | 0.0 | 0.00 | 0.00 | 0.00 | 86 | 1022.6 |
| 20260509103044 | 33 | 270 | 0.0 | 0.0 | 0.00 | 0.00 | 0.00 | 85 | 1022.6 |
| 20260509101550 | 33 | 270 | 0.0 | 0.0 | 0.00 | 0.00 | 0.00 | 84 | 1022.5 |
| 20260509100033 | 34 | 270 | 0.0 | 0.0 | 0.00 | 0.00 | 0.00 | 83 | 1022.5 |
| 20260509094533 | 35 | 270 | 0.0 | 0.0 | 0.00 | 0.00 | 0.00 | 84 | 1022.5 |
| 20260509093028 | 35 | 270 | 0.0 | 0.0 | 0.00 | 0.00 | 0.00 | 83 | 1022.4 |
| 20260509091526 | 36 | 270 | 0.0 | 0.0 | 0.00 | 0.00 | 0.00 | 83 | 1022.4 |
| 20260509090035 | 37 | 270 | 0.0 | 0.0 | 0.00 | 0.00 | 0.00 | 81 | 1022.4 |
| 20260509084522 | 37 | 270 | 0.0 | 0.0 | 0.00 | 0.00 | 0.00 | 79 | 1022.4 |
| 20260509083032 | 38 | 270 | 0.0 | 0.0 | 0.00 | 0.00 | 0.00 | 80 | 1022.5 |
| 20260509081518 | 38 | 270 | 0.0 | 0.0 | 0.00 | 0.00 | 0.00 | 80 | 1022.5 |
| 20260509080017 | 39 | 270 | 0.0 | 0.0 | 0.00 | 0.00 | 0.00 | 79 | 1022.4 |
| 20260509074513 | 39 | 270 | 0.0 | 0.0 | 0.00 | 0.00 | 0.00 | 78 | 1022.2 |
| 20260509073022 | 39 | 270 | 0.0 | 0.0 | 0.00 | 0.00 | 0.00 | 76 | 1022.1 |
| 20260509071511 | 39 | 270 | 0.0 | 0.0 | 0.00 | 0.00 | 0.00 | 76 | 1022.1 |
| 20260509070008 | 40 | 270 | 0.0 | 0.0 | 0.00 | 0.00 | 0.00 | 74 | 1022.0 |
| 20260509064505 | 40 | 270 | 0.0 | 0.0 | 0.00 | 0.00 | 0.00 | 73 | 1022.0 |
| 20260509063003 | 41 | 270 | 0.0 | 0.0 | 0.00 | 0.00 | 0.00 | 73 | 1021.8 |
| 20260509061600 | 42 | 270 | 0.0 | 0.0 | 0.00 | 0.00 | 0.00 | 71 | 1021.7 |
| 20260509060108 | 43 | 270 | 0.0 | 0.0 | 0.00 | 0.00 | 0.00 | 70 | 1021.4 |
| 20260509054553 | 44 | 270 | 0.0 | 0.0 | 0.00 | 0.00 | 0.00 | 68 | 1021.4 |
| 20260509053111 | 45 | 270 | 0.0 | 0.0 | 0.00 | 0.00 | 0.00 | 66 | 1021.2 |
| 20260509051551 | 46 | 270 | 0.0 | 0.0 | 0.00 | 0.00 | 0.00 | 65 | 1021.2 |
| 20260509050043 | 47 | 270 | 0.0 | 0.0 | 0.00 | 0.00 | 0.00 | 62 | 1021.0 |
| 20260509044550 | 49 | 270 | 0.0 | 0.0 | 0.00 | 0.00 | 0.00 | 61 | 1020.9 |
| 20260509043036 | 51 | 270 | 0.0 | 0.0 | 0.00 | 0.00 | 0.00 | 58 | 1020.9 |
| 20260509041530 | 53 | 270 | 0.0 | 0.0 | 0.00 | 0.00 | 0.00 | 55 | 1020.6 |
| 20260509040031 | 54 | 270 | 0.0 | 0.0 | 0.00 | 0.00 | 0.00 | 54 | 1020.6 |
| 20260509034524 | 55 | 270 | 0.0 | 0.0 | 0.00 | 0.00 | 0.00 | 51 | 1020.5 |
| 20260509033020 | 56 | 270 | 0.0 | 2.6 | 0.00 | 0.00 | 0.00 | 50 | 1020.3 |
| 20260509031517 | 57 | 272 | 0.0 | 1.7 | 0.00 | 0.00 | 0.00 | 49 | 1020.5 |
| 20260509030028 | 58 | 273 | 0.0 | 3.5 | 0.00 | 0.00 | 0.00 | 47 | 1020.1 |
| 20260509024513 | 60 | 275 | 0.0 | 3.5 | 0.00 | 0.00 | 0.00 | 46 | 1019.8 |
| 20260509023009 | 60 | 265 | 0.9 | 7.0 | 0.00 | 0.00 | 0.00 | 45 | 1019.5 |
| 20260509021505 | 62 | 211 | 0.9 | 3.5 | 0.00 | 0.00 | 0.00 | 43 | 1019.6 |
| 20260509020108 | 63 | 211 | 0.0 | 2.6 | 0.00 | 0.00 | 0.00 | 40 | 1019.6 |
| 20260509014557 | 63 | 211 | 0.9 | 3.5 | 0.00 | 0.00 | 0.00 | 38 | 1019.4 |
| 20260509013059 | 64 | 207 | 0.0 | 9.6 | 0.00 | 0.00 | 0.00 | 35 | 1019.2 |
| 20260509011557 | 65 | 325 | 0.0 | 3.5 | 0.00 | 0.00 | 0.00 | 36 | 1019.2 |
| 20260509010051 | 65 | 325 | 0.9 | 4.3 | 0.00 | 0.00 | 0.00 | 34 | 1019.4 |
| 20260509004557 | 65 | 321 | 0.9 | 7.0 | 0.00 | 0.00 | 0.00 | 34 | 1019.2 |
| 20260509003053 | 66 | 320 | 0.0 | 3.5 | 0.00 | 0.00 | 0.00 | 37 | 1019.1 |
| 20260509001545 | 66 | 322 | 0.0 | 7.8 | 0.00 | 0.00 | 0.00 | 35 | 1019.1 |
| 20260509000042 | 67 | 339 | 0.9 | 7.0 | 0.00 | 0.00 | 0.00 | 37 | 1018.9 |
| 20260508234517 | 68 | 294 | 2.6 | 7.0 | 0.00 | 0.00 | 0.00 | 37 | 1019.0 |